This is the latest recevied weather packets stored in our database for station/object AC5CM. If no packets are shown the sender has not sent any weather packets the latest 10 day(s).
| Time | Temp. | Humidity | Pressure | Rain* | Wind** | Luminosity | Snow |
|---|---|---|---|---|---|---|---|
| 1777615073 | 20° C | 96% | 1011.9 hPa | 4.83 mm | - | - | - |
| 1777614769 | 20° C | 96% | 1011.8 hPa | 3.05 mm | - | - | - |
| 1777614464 | 20.56° C | 96% | 1011.9 hPa | 8.89 mm | - | - | - |
| 1777614161 | 20.56° C | 96% | 1012.3 hPa | 11.94 mm | - | - | - |
| 1777613855 | 20.56° C | 96% | 1012.2 hPa | 8.89 mm | - | - | - |
| 1777613553 | 20.56° C | 96% | 1012.5 hPa | 9.65 mm | - | - | - |
| 1777613249 | 20.56° C | 95% | 1013.1 hPa | 18.54 mm | - | - | - |
| 1777612946 | 20.56° C | 95% | 1012.8 hPa | 16.76 mm | - | - | - |
| 1777612641 | 20.56° C | 94% | 1012.8 hPa | 14.99 mm | - | - | - |
| 1777612338 | 20.56° C | 94% | 1012.9 hPa | 32.51 mm | - | - | - |
| 1777612033 | 21.11° C | 94% | 1012.8 hPa | 16.76 mm | - | - | - |
| 1777611728 | 21.11° C | 94% | 1013 hPa | 0 mm | - | - | - |
| 1777611425 | 21.11° C | 94% | 1013.4 hPa | 0 mm | - | - | - |
| 1777611122 | 21.11° C | 94% | 1012.1 hPa | 0 mm | - | - | - |
| 1777610822 | 21.11° C | 94% | 1011.6 hPa | 0 mm | - | - | - |
| 1777610517 | 21.11° C | 94% | 1011.8 hPa | 0 mm | - | - | - |
| 1777610213 | 21.11° C | 94% | 1011.9 hPa | 0 mm | - | - | - |
| 1777609910 | 21.11° C | 94% | 1012 hPa | 0 mm | - | - | - |
| 1777609606 | 21.67° C | 95% | 1011.8 hPa | 0 mm | - | - | - |
| 1777609303 | 21.67° C | 95% | 1011.8 hPa | 0 mm | - | - | - |
| 1777609001 | 21.67° C | 95% | 1012 hPa | 0 mm | - | - | - |
| 1777608698 | 21.67° C | 95% | 1011.5 hPa | 0 mm | - | - | - |
| 1777608395 | 21.67° C | 95% | 1010.1 hPa | 0 mm | - | - | - |
| 1777608093 | 21.67° C | 95% | 1010.3 hPa | 0 mm | - | - | - |
| 1777607788 | 21.67° C | 95% | 1010.8 hPa | 0 mm | - | - | - |
* Rain latest hour (hover to see other rain measurements)
** Current wind speed in m/s (hover to see current wind gust speed)